EHI
0 0 0 0 0 0 0 0 0 0 0 0 0 0 0 0 0 0 0 0 1 2 2 1 2 2 1 1 2 3 3 3 2 1 0 0 0 0 0 0 0 0 0
0 0 0 0 0 0 0 0 0 0 0 0 0 0 0 0 0 0 0 0 0 1 2 1 1 1 1 2 2 3 3 4 3 1 0 0 0 0 0 0 0 0 0
0 0 0 0 0 0 0 0 0 0 0 0 0 0 0 0 0 0 0 0 0 0 1 1 1 0 1 1 2 3 4 4 2 1 0 0 0 0 0 0 0 0 0
0 0 0 0 0 0 0 0 0 0 0 0 0 0 0 0 0 0 0 0 0 0 1 1 1 0 0 1 1 2 3 3 1 0 0 0 0 0 0 0 0 0 0
0 0 0 0 0 0 0 0 0 0 0 0 0 0 0 0 0 0 0 0 0 0 1 1 1 0 0 0 0 0 1 2 1 0 0 0 0 0 0 0 0 0 0
0 0 0 0 0 0 0 0 0 0 0 0 0 0 0 0 0 0 0 0 0 0 1 1 0 0 0 0 0 0 0 0 0 0 0 0 0 0 0 0 0 0 0
0 0 0 0 0 0 0 0 0 0 0 0 0 0 0 0 0 0 0 0 0 0 0 0 0 0 0 0 0 0 0 0 0 0 0 0 0 0 0 0 0 0 0
0 0 0 0 0 0 0 0 0 0 0 0 0 0 0 0 0 0 0 0 0 0 0 0 0 0 0 0 0 0 0 0 0 0 0 0 0 0 0 0 0 0 0
0 0 0 0 0 0 0 0 0 0 0 0 0 0 0 0 0 0 0 0 0 0 0 0 0 0 0 0 0 0 0 0 0 0 0 0 0 0 1 0 0 0 0
0 0 0 0 0 0 0 0 0 0 0 0 0 0 0 0 0 0 0 0 0 0 0 0 0 0 0 0 0 0 0 0 0 0 0 1 1 1 1 0 0 0 0
0 0 0 0 0 0 0 0 0 0 0 0 0 0 0 0 0 0 0 0 0 0 0 0 0 0 0 0 0 0 0 0 0 0 0 1 1 1 1 0 0 0 0
0 0 0 0 0 0 0 0 0 0 0 0 0 0 0 0 0 0 0 0 0 0 0 0 0 0 0 0 0 0 0 0 0 0 0 0 1 2 1 1 1 0 0
0 0 0 0 0 0 0 0 0 0 0 0 0 0 0 0 0 0 0 0 0 0 0 0 0 0 0 0 0 0 0 0 0 0 0 0 1 1 0 1 1 0 0
0 0 0 0 0 0 0 0 0 0 0 0 0 0 0 0 0 0 0 0 0 0 0 0 0 0 0 0 0 0 0 0 0 0 0 0 0 0 0 0 0 0 0
0 0 0 0 0 0 0 0 0 0 0 0 0 0 0 0 0 0 0 0 0 0 0 0 0 0 0 0 0 0 0 0 0 0 0 0 0 0 0 0 0 0 0
0 0 0 0 0 0 0 0 0 0 0 0 0 0 0 0 0 0 0 0 0 0 0 0 0 0 0 0 0 0 0 0 0 0 0 0 0 0 0 0 0 0 0
0 0 0 0 0 0 0 0 0 0 0 0 0 0 0 0 0 0 0 0 0 0 0 0 0 0 0 0 0 0 0 0 0 0 0 0 0 0 0 0 0 0 0
0 0 0 0 0 0 0 0 0 0 0 0 0 0 0 0 0 0 0 0 0 0 0 0 0 0 0 0 0 0 0 0 0 0 0 0 0 0 0 0 0 0 0
0 0 0 0 0 0 0 0 0 0 0 0 0 0 0 0 0 0 0 0 0 0 0 0 0 0 0 0 0 0 0 0 0 0 0 0 0 0 0 0 0 0 0
0 0 0 0 0 0 0 0 0 0 0 0 0 0 0 0 0 0 0 0 0 0 0 0 0 0 0 0 0 0 0 0 0 0 0 0 0 0 0 0 0 0 0
0 0 0 0 0 0 0 0 0 0 0 0 0 0 0 0 0 0 0 0 0 0 0 0 0 0 0 0 0 0 0 0 0 0 0 0 0 0 0 0 0 0 0
0 0 0 0 0 0 0 0 0 0 0 0 0 0 0 0 0 0 0 0 0 0 0 0 0 0 0 0 0 0 0 0 0 0 0 0 0 0 0 0 0 0 0
0 0 0 0 0 0 0 0 0 0 0 0 0 0 0 0 0 0 0 0 0 0 0 0 0 0 0 0 0 0 0 0 0 0 0 0 0 0 0 0 0 0 0
0 0 0 0 0 0 0 0 0 0 0 0 0 0 0 0 0 0 0 0 0 0 0 0 0 0 0 0 0 0 0 0 0 0 0 0 0 0 0 0 0 0 0
0 0 0 0 0 0 0 0 0 0 0 0 0 0 0 0 0 0 0 0 0 0 0 0 0 0 0 0 0 0 0 0 0 0 0 0 0 0 0 0 0 0 0
0 0 0 0 0 0 0 0 0 0 0 0 0 0 0 0 0 0 0 0 0 0 0 0 0 0 0 0 0 0 0 0 0 0 0 0 0 0 0 0 0 0 0
Wind_Speed
2 2 2 2 2 2 2 2 2 2 2 2 1 0 0 1 1 1 2 6 7 9 11 13 14 14 14 14 14 14 14 14 12 11 11 11 12 12 11 11 10 9 9
2 2 2 2 2 2 2 2 2 2 2 1 1 1 1 1 1 2 2 4 6 7 10 12 14 14 15 14 14 15 15 14 13 12 12 11 12 12 12 11 11 10 9
3 3 2 2 2 2 2 2 3 2 2 2 2 2 1 1 2 2 3 3 3 6 9 11 12 12 13 14 14 15 15 14 14 13 13 12 12 12 12 11 11 11 10
3 3 3 2 2 2 2 2 2 2 2 2 2 2 2 2 2 2 3 3 3 3 5 9 11 12 13 14 15 15 15 15 15 14 14 13 13 13 12 12 12 11 11
3 3 3 2 2 3 3 2 3 2 2 3 2 1 2 2 2 2 2 3 3 3 3 5 8 10 13 14 15 15 15 16 15 16 16 16 15 14 14 13 13 12 12
3 3 3 3 3 3 3 2 3 3 2 2 2 2 2 2 2 3 3 2 2 2 2 3 2 5 10 12 14 15 16 16 16 17 17 18 17 16 15 15 14 14 14
3 3 2 2 2 3 2 2 2 3 3 3 2 3 3 3 3 4 4 3 3 3 1 1 2 2 3 7 10 13 15 16 17 17 17 18 18 17 17 16 16 15 15
3 3 3 2 2 2 3 3 2 2 3 4 2 2 3 4 4 4 4 5 5 4 4 3 1 1 2 2 4 8 11 15 16 17 17 17 18 18 18 18 17 17 16
2 2 3 2 2 2 2 2 2 2 2 3 2 2 2 0 3 3 3 5 5 4 4 4 4 3 2 1 2 4 8 9 12 15 15 15 16 16 18 19 19 19 18
2 3 3 3 2 2 2 1 2 1 2 1 2 2 1 1 0 2 3 3 5 5 5 4 5 4 4 2 2 3 5 6 7 11 13 14 15 15 17 18 20 20 20
1 3 3 3 3 2 2 1 2 1 1 1 1 1 2 2 1 1 2 4 4 3 4 4 3 4 4 3 3 3 4 4 4 6 9 11 13 14 16 18 20 21 22
1 2 3 3 3 2 2 2 2 2 1 1 1 1 1 1 1 1 1 2 3 3 3 3 3 3 3 4 5 6 5 4 3 3 4 6 9 12 14 16 19 21 22
1 2 3 3 3 3 3 2 2 2 2 2 2 1 1 1 1 1 1 1 2 2 3 2 2 3 3 3 4 7 6 5 3 3 3 3 5 7 10 13 15 16 19
3 3 3 3 3 3 3 3 2 2 2 2 3 2 2 2 2 2 2 2 1 2 2 3 2 2 3 3 4 5 4 6 5 4 3 4 4 5 6 8 10 12 13
3 4 4 4 3 3 3 3 2 3 2 3 3 3 2 2 2 3 3 3 2 2 2 3 2 2 3 3 4 4 4 5 6 5 5 5 5 6 6 7 8 9 10
4 4 4 4 4 4 3 3 3 3 3 3 3 3 3 2 2 3 3 3 4 3 3 2 3 3 4 4 5 4 4 7 6 6 6 6 7 7 7 8 8 9 10
5 5 5 4 4 4 4 3 4 3 4 4 3 4 5 4 3 3 3 3 4 4 5 4 3 3 4 5 5 4 4 4 4 7 8 8 8 9 9 9 9 10 11
6 6 5 5 5 5 4 4 5 4 5 5 5 5 6 4 5 4 3 4 4 5 5 6 3 3 4 4 4 5 4 4 4 7 9 9 9 9 9 10 11 11 11
6 6 5 6 6 5 5 5 5 5 6 6 6 6 6 5 6 4 5 5 4 5 5 5 5 3 3 3 3 4 4 4 4 5 7 7 7 7 8 10 11 11 12
7 7 7 7 7 6 6 6 6 6 6 6 6 7 7 7 7 7 5 6 5 5 5 5 5 4 4 4 3 4 4 3 4 4 5 5 6 7 7 8 10 11 12
8 7 7 7 7 6 6 7 7 7 7 7 7 7 7 9 10 8 6 6 6 5 5 5 5 4 4 4 4 3 4 4 4 4 3 3 3 4 5 7 8 10 11
7 7 8 8 8 7 9 11 9 7 7 7 8 7 7 9 10 11 12 11 9 8 7 6 5 6 7 6 4 4 4 3 4 2 2 4 3 6 6 6 8 11 12
7 8 8 8 9 10 12 12 12 8 8 8 8 8 7 7 8 7 8 10 10 12 13 9 9 10 8 7 5 5 5 6 6 4 3 6 5 7 7 7 12 13 13
7 7 8 9 9 10 13 14 13 10 9 10 10 10 9 9 8 8 7 8 8 9 10 10 10 10 10 8 7 7 6 6 7 6 5 6 6 7 7 7 11 14 14
7 7 7 9 10 11 13 14 12 7 8 11 10 10 11 11 12 11 9 9 9 9 10 12 13 12 12 11 8 5 5 5 7 6 5 5 5 6 6 7 8 11 12
8 8 8 9 10 11 12 14 13 7 8 9 8 9 13 14 14 12 10 9 10 10 8 6 7 8 9 9 10 10 8 8 7 6 5 6 5 4 5 4 4 4 5
Wind_Direction
87 67 48 41 37 37 47 39 33 25 23 16 12 42 198 241 262 240 254 261 245 226 215 204 199 195 194 195 195 196 196 196 192 189 188 185 181 182 181 179 175 172 169
96 80 57 42 33 30 43 54 52 38 8 2 355 337 307 275 264 260 254 270 266 242 224 213 208 204 200 202 202 202 202 202 197 194 193 192 188 187 188 186 183 179 176
95 90 74 50 28 28 49 56 47 41 27 11 356 344 346 318 294 279 271 261 269 260 241 226 217 212 211 210 210 209 207 205 202 199 197 196 194 192 192 190 189 186 182
104 96 84 60 34 42 52 62 44 39 22 11 352 342 347 331 311 289 270 260 254 258 252 237 223 216 217 217 219 218 216 210 206 203 202 201 199 197 195 194 193 192 189
103 97 86 66 51 54 47 53 51 44 20 358 337 358 357 346 333 326 303 274 256 251 250 251 239 228 227 227 227 224 222 218 212 209 207 206 206 203 200 198 197 196 195
114 102 89 71 63 64 50 47 56 42 27 349 345 5 1 359 6 11 353 336 309 279 258 256 253 249 240 233 232 231 228 224 218 215 213 212 211 208 204 202 201 200 200
131 116 102 84 73 71 58 49 62 43 23 0 26 6 355 7 25 26 14 19 15 1 341 274 254 250 254 246 236 233 231 230 227 221 217 215 213 210 206 205 204 204 204
151 140 127 114 100 86 60 44 51 58 25 23 51 58 12 359 358 11 12 28 24 21 21 11 339 280 262 252 249 244 238 234 231 227 223 219 216 213 209 208 207 207 207
171 152 149 139 126 110 96 66 58 78 56 23 35 93 100 10 318 335 3 17 15 25 17 11 15 359 331 282 268 263 260 245 236 232 229 226 220 216 214 212 211 210 209
185 174 165 154 144 130 123 105 92 85 96 48 24 38 74 149 87 336 335 353 2 17 9 9 9 6 2 346 314 296 291 274 254 242 234 231 227 223 219 218 217 215 213
209 189 171 162 163 158 155 142 125 116 114 121 79 57 65 56 69 108 324 334 342 344 351 355 360 1 3 1 340 332 321 305 291 267 246 236 231 229 228 227 226 224 221
239 194 172 171 175 176 184 184 169 158 157 146 145 147 144 139 148 139 251 310 317 314 325 334 353 355 358 0 352 353 348 338 316 292 269 253 242 235 233 234 234 231 227
206 203 177 180 186 195 199 190 186 191 185 184 190 196 198 206 184 171 185 255 295 306 318 315 321 341 356 356 347 353 353 350 338 316 295 277 268 254 242 237 237 237 234
204 196 189 194 204 205 204 194 201 212 202 209 214 205 211 220 201 193 187 184 277 302 299 296 312 321 339 336 329 337 334 332 325 317 302 286 273 266 259 249 243 241 241
202 196 197 203 211 211 209 198 213 226 213 223 228 223 223 226 213 214 206 193 194 257 283 282 291 302 320 314 314 320 313 310 311 303 291 277 272 266 262 256 251 249 245
202 191 202 209 216 220 215 208 224 228 225 233 225 228 234 234 227 217 212 211 209 214 247 258 259 281 298 303 309 311 301 305 301 296 285 274 267 263 261 258 255 252 249
201 203 209 213 222 229 224 217 233 237 239 247 238 230 242 235 234 231 217 214 214 209 240 264 254 268 276 285 303 303 295 292 288 285 284 278 270 263 258 256 256 253 250
207 208 209 216 226 230 225 223 237 239 237 248 248 239 248 240 236 235 226 227 225 217 229 260 267 262 260 273 283 292 295 294 286 285 284 281 274 266 259 255 254 253 250
209 210 208 218 227 231 230 229 231 239 240 244 245 241 247 239 245 241 234 237 238 233 223 242 263 257 263 270 282 284 286 287 286 287 287 285 283 279 270 261 256 252 249
208 212 215 221 227 230 232 235 233 237 242 244 242 240 242 236 241 243 241 240 240 241 234 239 256 261 262 264 258 269 282 276 286 292 284 279 282 287 282 276 266 256 250
215 216 218 226 229 229 232 229 231 235 240 247 247 243 243 242 241 238 237 237 233 238 241 243 254 258 258 253 251 250 268 282 278 264 275 275 281 285 283 277 273 265 258
217 215 220 226 229 232 233 229 224 231 236 240 248 251 251 254 254 252 248 244 230 231 239 241 249 253 259 253 250 245 252 269 278 247 251 276 274 277 275 269 264 263 263
216 220 226 227 234 238 237 238 234 228 234 238 241 248 253 250 243 248 256 260 252 240 231 234 246 252 256 248 238 245 239 241 252 256 253 275 266 270 269 267 261 260 261
215 223 229 229 235 243 239 238 238 233 237 241 240 240 243 251 246 237 247 256 258 254 243 238 240 247 249 249 237 246 255 257 260 256 232 261 268 267 272 267 261 256 256
221 222 226 226 232 244 240 237 233 231 238 245 244 239 237 245 246 233 235 249 261 264 254 241 237 243 246 245 235 237 240 244 261 258 212 232 261 269 270 267 262 254 254
228 229 235 233 233 243 243 237 227 225 238 247 247 242 235 235 240 231 227 235 248 257 258 260 251 252 253 253 239 231 235 242 253 261 222 214 245 256 275 257 261 268 264